Location: Homewood
(41.1836°S, 175.9581°E)
Time: 05:30:59
(UTC+00:00)

Cosmos 1408 - Visible Passes

Search period start: 16 July 2024 00:00
Search period end: 26 July 2024 00:00
Orbit: 352 x 369 km, 82.6° (Epoch: 15 July)

Date Brightness Start Highest point End Pass type
(mag) Time Alt. Az. Time Alt. Az. Time Alt. Az.
16 Jul 4.1 06:42:32 10° SSW 06:45:13 29° W 06:47:52 10° NNW visible
16 Jul 4.4 18:32:09 10° NNE 18:34:40 27° E 18:37:13 10° SSE visible
17 Jul 2.8 05:39:15 10° SSE 05:42:00 31° ESE 05:44:42 10° NE visible
17 Jul 1.9 19:00:47 10° NNW 19:03:40 68° W 19:06:37 10° S visible
18 Jul 2.7 06:08:06 10° SSW 06:11:04 59° W 06:13:59 10° N visible
18 Jul 5.4 17:58:41 10° NE 18:00:27 15° E 18:02:14 10° SE visible
19 Jul 5.4 06:37:52 10° SW 06:39:48 16° W 06:41:43 10° NW visible
19 Jul 2.7 18:26:16 10° N 18:29:07 55° E 18:32:01 10° SSE visible
20 Jul 2.7 18:55:12 10° NW 18:57:52 32° WSW 19:00:35 10° SSW visible
21 Jul 4.3 06:02:21 10° SSW 06:05:01 29° W 06:07:38 10° NNW visible
21 Jul 4.3 17:51:37 10° NNE 17:54:09 27° E 17:56:43 10° SSE visible
22 Jul 1.8 18:19:40 10° NNW 18:22:33 69° W 18:25:31 10° S visible
23 Jul 5.3 17:17:04 10° NE 17:18:46 15° E 17:20:31 10° SE visible
23 Jul 3.5 18:48:56 10° WNW 18:51:03 18° WSW 18:53:12 10° SSW visible
24 Jul 5.3 05:55:51 10° SW 05:57:50 16° W 05:59:48 10° NW visible
24 Jul 2.8 17:44:00 10° N 17:46:50 52° E 17:49:44 10° SSE visible
25 Jul 2.5 18:12:16 10° NNW 18:14:58 34° WSW 18:17:45 10° S visible
